Tracking 29487 objects as of 10-Sep-2024
HD Live streaming from Space Station
objects crossing your sky now

DMSP 5D-2 F12 DEB

Track DMSP 5D-2 F12 DEB now!
10-day predictions


NORAD ID: 23250
Int'l Code: 1994-057D
Perigee: 673.2 km
Apogee: 683.8 km
Inclination: 98.1 °
Period: 98.2 minutes
Semi major axis: 7049 km
RCS: 0.0787 m2 (small)
Launch date: August 29, 1994
Source: United States (US)
Launch site: AIR FORCE WESTERN TEST RANGE (AFWTR)

Note: This is SATELLITE DEBRIS
Your satellite tracking list
Your tracking list is empty




NASA's NSSDC Master Catalog

Two Line Element Set (TLE):
1 23250U 94057D   24254.04603580  .00036490  00000-0  65162-2 0  9994
2 23250  98.1142 279.6706 0007583 107.0069 307.1634 14.66781983572452
Source of the keplerian elements: AFSPC